Year,Month,Day,Hour,Minute,Value (Times are PST for temperature in C)
2016,05,02,00,00,9.10
2016,05,02,00,01,9.00
2016,05,02,00,02,9.00
2016,05,02,00,03,9.00
2016,05,02,00,04,9.00
2016,05,02,00,05,9.00
2016,05,02,00,06,9.00
2016,05,02,00,07,9.00
2016,05,02,00,08,9.00
2016,05,02,00,09,9.00
2016,05,02,00,10,8.90
2016,05,02,00,11,8.90
2016,05,02,00,12,8.90
2016,05,02,00,13,8.90
2016,05,02,00,14,8.90
2016,05,02,00,15,8.90
2016,05,02,00,16,8.90
2016,05,02,00,17,8.90
2016,05,02,00,18,8.90
2016,05,02,00,19,8.80
2016,05,02,00,20,8.80
2016,05,02,00,21,8.80
2016,05,02,00,22,8.80
2016,05,02,00,23,8.80
2016,05,02,00,24,8.80
2016,05,02,00,25,8.80
2016,05,02,00,26,8.80
2016,05,02,00,27,8.70
2016,05,02,00,28,8.70
2016,05,02,00,29,8.70
2016,05,02,00,30,8.70
2016,05,02,00,31,8.70
2016,05,02,00,32,8.70
2016,05,02,00,33,8.70
2016,05,02,00,34,8.70
2016,05,02,00,35,8.70
2016,05,02,00,36,8.70
2016,05,02,00,37,8.70
2016,05,02,00,38,8.70
2016,05,02,00,39,8.70
2016,05,02,00,40,8.70
2016,05,02,00,41,8.70
2016,05,02,00,42,8.70
2016,05,02,00,43,8.60
2016,05,02,00,44,8.60
2016,05,02,00,45,8.60
2016,05,02,00,46,8.60
2016,05,02,00,47,8.60
2016,05,02,00,48,8.60
2016,05,02,00,49,8.60
2016,05,02,00,50,8.60
2016,05,02,00,51,8.60
2016,05,02,00,52,8.60
2016,05,02,00,53,8.60
2016,05,02,00,54,8.60
2016,05,02,00,55,8.60
2016,05,02,00,56,8.60
2016,05,02,00,57,8.60
2016,05,02,00,58,8.60
2016,05,02,00,59,8.50
2016,05,02,01,00,8.50
2016,05,02,01,01,8.50
2016,05,02,01,02,8.50
2016,05,02,01,03,8.50
2016,05,02,01,04,8.50
2016,05,02,01,05,8.50
2016,05,02,01,06,8.50
2016,05,02,01,07,8.50
2016,05,02,01,08,8.50
2016,05,02,01,09,8.50
2016,05,02,01,10,8.50
2016,05,02,01,11,8.50
2016,05,02,01,12,8.50
2016,05,02,01,13,8.50
2016,05,02,01,14,8.50
2016,05,02,01,15,8.50
2016,05,02,01,16,8.50
2016,05,02,01,17,8.50
2016,05,02,01,18,8.50
2016,05,02,01,19,8.50
2016,05,02,01,20,8.50
2016,05,02,01,21,8.50
2016,05,02,01,22,8.50
2016,05,02,01,23,8.50
2016,05,02,01,24,8.50
2016,05,02,01,25,8.50
2016,05,02,01,26,8.50
2016,05,02,01,27,8.50
2016,05,02,01,28,8.40
2016,05,02,01,29,8.40
2016,05,02,01,30,8.40
2016,05,02,01,31,8.40
2016,05,02,01,32,8.40
2016,05,02,01,33,8.40
2016,05,02,01,34,8.40
2016,05,02,01,35,8.40
2016,05,02,01,36,8.40
2016,05,02,01,37,8.40
2016,05,02,01,38,8.40
2016,05,02,01,39,8.40
2016,05,02,01,40,8.30
2016,05,02,01,41,8.30
2016,05,02,01,42,8.30
2016,05,02,01,43,8.30
2016,05,02,01,44,8.30
2016,05,02,01,45,8.30
2016,05,02,01,46,8.30
2016,05,02,01,47,8.30
2016,05,02,01,48,8.30
2016,05,02,01,49,8.30
2016,05,02,01,50,8.30
2016,05,02,01,51,8.30
2016,05,02,01,52,8.30
2016,05,02,01,53,8.30
2016,05,02,01,54,8.30
2016,05,02,01,55,8.30
2016,05,02,01,56,8.30
2016,05,02,01,57,8.30
2016,05,02,01,58,8.30
2016,05,02,01,59,8.30
2016,05,02,02,00,8.30
2016,05,02,02,01,8.30
2016,05,02,02,02,8.30
2016,05,02,02,03,8.30
2016,05,02,02,04,8.30
2016,05,02,02,05,8.20
2016,05,02,02,06,8.20
2016,05,02,02,07,8.20
2016,05,02,02,08,8.20
2016,05,02,02,09,8.20
2016,05,02,02,10,8.20
2016,05,02,02,11,8.20
2016,05,02,02,12,8.20
2016,05,02,02,13,8.20
2016,05,02,02,14,8.20
2016,05,02,02,15,8.20
2016,05,02,02,16,8.20
2016,05,02,02,17,8.20
2016,05,02,02,18,8.20
2016,05,02,02,19,8.20
2016,05,02,02,20,8.10
2016,05,02,02,21,8.10
2016,05,02,02,22,8.10
2016,05,02,02,23,8.10
2016,05,02,02,24,8.10
2016,05,02,02,25,8.10
2016,05,02,02,26,8.10
2016,05,02,02,27,8.10
2016,05,02,02,28,8.10
2016,05,02,02,29,8.10
2016,05,02,02,30,8.10
2016,05,02,02,31,8.10
2016,05,02,02,32,8.10
2016,05,02,02,33,8.10
2016,05,02,02,34,8.10
2016,05,02,02,35,8.10
2016,05,02,02,36,8.10
2016,05,02,02,37,8.10
2016,05,02,02,38,8.10
2016,05,02,02,39,8.10
2016,05,02,02,40,8.10
2016,05,02,02,41,8.10
2016,05,02,02,42,8.10
2016,05,02,02,43,8.10
2016,05,02,02,44,8.10
2016,05,02,02,45,8.10
2016,05,02,02,46,8.10
2016,05,02,02,47,8.10
2016,05,02,02,48,8.10
2016,05,02,02,49,8.10
2016,05,02,02,50,8.10
2016,05,02,02,51,8.10
2016,05,02,02,52,8.10
2016,05,02,02,53,8.10
2016,05,02,02,54,8.10
2016,05,02,02,55,8.10
2016,05,02,02,56,8.10
2016,05,02,02,57,8.20
2016,05,02,02,58,8.20
2016,05,02,02,59,8.20
2016,05,02,03,00,8.20
2016,05,02,03,01,8.20
2016,05,02,03,02,8.20
2016,05,02,03,03,8.20
2016,05,02,03,04,8.20
2016,05,02,03,05,8.20
2016,05,02,03,06,8.20
2016,05,02,03,07,8.20
2016,05,02,03,08,8.20
2016,05,02,03,09,8.20
2016,05,02,03,10,8.20
2016,05,02,03,11,8.20
2016,05,02,03,12,8.20
2016,05,02,03,13,8.20
2016,05,02,03,14,8.20
2016,05,02,03,15,8.20
2016,05,02,03,16,8.20
2016,05,02,03,17,8.20
2016,05,02,03,18,8.20
2016,05,02,03,19,8.20
2016,05,02,03,20,8.20
2016,05,02,03,21,8.20
2016,05,02,03,22,8.20
2016,05,02,03,23,8.20
2016,05,02,03,24,8.20
2016,05,02,03,25,8.20
2016,05,02,03,26,8.20
2016,05,02,03,27,8.20
2016,05,02,03,28,8.10
2016,05,02,03,29,8.10
2016,05,02,03,30,8.10
2016,05,02,03,31,8.10
2016,05,02,03,32,8.10
2016,05,02,03,33,8.10
2016,05,02,03,34,8.10
2016,05,02,03,35,8.10
2016,05,02,03,36,8.10
2016,05,02,03,37,8.10
2016,05,02,03,38,8.10
2016,05,02,03,39,8.10
2016,05,02,03,40,8.10
2016,05,02,03,41,8.00
2016,05,02,03,42,8.00
2016,05,02,03,43,8.00
2016,05,02,03,44,8.00
2016,05,02,03,45,7.90
2016,05,02,03,46,7.90
2016,05,02,03,47,7.90
2016,05,02,03,48,7.90
2016,05,02,03,49,7.90
2016,05,02,03,50,7.90
2016,05,02,03,51,7.90
2016,05,02,03,52,7.80
2016,05,02,03,53,7.80
2016,05,02,03,54,7.80
2016,05,02,03,55,7.80
2016,05,02,03,56,7.80
2016,05,02,03,57,7.80
2016,05,02,03,58,7.70
2016,05,02,03,59,7.70
2016,05,02,04,00,7.70
2016,05,02,04,01,7.70
2016,05,02,04,02,7.70
2016,05,02,04,03,7.70
2016,05,02,04,04,7.70
2016,05,02,04,05,7.60
2016,05,02,04,06,7.60
2016,05,02,04,07,7.60
2016,05,02,04,08,7.60
2016,05,02,04,09,7.60
2016,05,02,04,10,7.60
2016,05,02,04,11,7.60
2016,05,02,04,12,7.60
2016,05,02,04,13,7.60
2016,05,02,04,14,7.60
2016,05,02,04,15,7.60
2016,05,02,04,16,7.60
2016,05,02,04,17,7.60
2016,05,02,04,18,7.50
2016,05,02,04,19,7.50
2016,05,02,04,20,7.50
2016,05,02,04,21,7.50
2016,05,02,04,22,7.40
2016,05,02,04,23,7.40
2016,05,02,04,24,7.40
2016,05,02,04,25,7.40
2016,05,02,04,26,7.40
2016,05,02,04,27,7.40
2016,05,02,04,28,7.40
2016,05,02,04,29,7.40
2016,05,02,04,30,7.40
2016,05,02,04,31,7.40
2016,05,02,04,32,7.40
2016,05,02,04,33,7.40
2016,05,02,04,34,7.40
2016,05,02,04,35,7.40
2016,05,02,04,36,7.40
2016,05,02,04,37,7.40
2016,05,02,04,38,7.40
2016,05,02,04,39,7.40
2016,05,02,04,40,7.40
2016,05,02,04,41,7.40
2016,05,02,04,42,7.40
2016,05,02,04,43,7.40
2016,05,02,04,44,7.40
2016,05,02,04,45,7.40
2016,05,02,04,46,7.40
2016,05,02,04,47,7.40
2016,05,02,04,48,7.40
2016,05,02,04,49,7.40
2016,05,02,04,50,7.40
2016,05,02,04,51,7.40
2016,05,02,04,52,7.40
2016,05,02,04,53,7.40
2016,05,02,04,54,7.40
2016,05,02,04,55,7.30
2016,05,02,04,56,7.30
2016,05,02,04,57,7.30
2016,05,02,04,58,7.30
2016,05,02,04,59,7.30
2016,05,02,05,00,7.30
2016,05,02,05,01,7.40
2016,05,02,05,02,7.40
2016,05,02,05,03,7.40
2016,05,02,05,04,7.40
2016,05,02,05,05,7.40
2016,05,02,05,06,7.40
2016,05,02,05,07,7.40
2016,05,02,05,08,7.40
2016,05,02,05,09,7.40
2016,05,02,05,10,7.40
2016,05,02,05,11,7.40
2016,05,02,05,12,7.40
2016,05,02,05,13,7.40
2016,05,02,05,14,7.40
2016,05,02,05,15,7.40
2016,05,02,05,16,7.40
2016,05,02,05,17,7.40
2016,05,02,05,18,7.40
2016,05,02,05,19,7.40
2016,05,02,05,20,7.40
2016,05,02,05,21,7.40
2016,05,02,05,22,7.40
2016,05,02,05,23,7.40
2016,05,02,05,24,7.40
2016,05,02,05,25,7.40
2016,05,02,05,26,7.40
2016,05,02,05,27,7.40
2016,05,02,05,28,7.40
2016,05,02,05,29,7.40
2016,05,02,05,30,7.30
2016,05,02,05,31,7.30
2016,05,02,05,32,7.30
2016,05,02,05,33,7.30
2016,05,02,05,34,7.30
2016,05,02,05,35,7.30
2016,05,02,05,36,7.30
2016,05,02,05,37,7.30
2016,05,02,05,38,7.30
2016,05,02,05,39,7.30
2016,05,02,05,40,7.30
2016,05,02,05,41,7.30
2016,05,02,05,42,7.20
2016,05,02,05,43,7.20
2016,05,02,05,44,7.20
2016,05,02,05,45,7.20
2016,05,02,05,46,7.20
2016,05,02,05,47,7.20
2016,05,02,05,48,7.20
2016,05,02,05,49,7.20
2016,05,02,05,50,7.20
2016,05,02,05,51,7.20
2016,05,02,05,52,7.20
2016,05,02,05,53,7.20
2016,05,02,05,54,7.20
2016,05,02,05,55,7.20
2016,05,02,05,56,7.20
2016,05,02,05,57,7.20
2016,05,02,05,58,7.10
2016,05,02,05,59,7.10
2016,05,02,06,00,7.10
2016,05,02,06,01,7.10
2016,05,02,06,02,7.10
2016,05,02,06,03,7.10
2016,05,02,06,04,7.10
2016,05,02,06,05,7.10
2016,05,02,06,06,7.10
2016,05,02,06,07,7.10
2016,05,02,06,08,7.10
2016,05,02,06,09,7.10
2016,05,02,06,10,7.10
2016,05,02,06,11,7.10
2016,05,02,06,12,7.10
2016,05,02,06,13,7.10
2016,05,02,06,14,7.10
2016,05,02,06,15,7.10
2016,05,02,06,16,7.10
2016,05,02,06,17,7.10
2016,05,02,06,18,7.10
2016,05,02,06,19,7.10
2016,05,02,06,20,7.10
2016,05,02,06,21,7.10
2016,05,02,06,22,7.10
2016,05,02,06,23,7.10
2016,05,02,06,24,7.10
2016,05,02,06,25,7.10
2016,05,02,06,26,7.10
2016,05,02,06,27,7.10
2016,05,02,06,28,7.00
2016,05,02,06,29,7.00
2016,05,02,06,30,7.00
2016,05,02,06,31,7.00
2016,05,02,06,32,7.00
2016,05,02,06,33,7.00
2016,05,02,06,34,7.00
2016,05,02,06,35,7.10
2016,05,02,06,36,7.10
2016,05,02,06,37,7.10
2016,05,02,06,38,7.10
2016,05,02,06,39,7.10
2016,05,02,06,40,7.10
2016,05,02,06,41,7.20
2016,05,02,06,42,7.20
2016,05,02,06,43,7.20
2016,05,02,06,44,7.20
2016,05,02,06,45,7.20
2016,05,02,06,46,7.20
2016,05,02,06,47,7.20
2016,05,02,06,48,7.20
2016,05,02,06,49,7.20
2016,05,02,06,50,7.20
2016,05,02,06,51,7.20
2016,05,02,06,52,7.20
2016,05,02,06,53,7.20
2016,05,02,06,54,7.20
2016,05,02,06,55,7.20
2016,05,02,06,56,7.20
2016,05,02,06,57,7.20
2016,05,02,06,58,7.30
2016,05,02,06,59,7.30
2016,05,02,07,00,7.30
2016,05,02,07,01,7.30
2016,05,02,07,02,7.30
2016,05,02,07,03,7.30
2016,05,02,07,04,7.30
2016,05,02,07,05,7.40
2016,05,02,07,06,7.40
2016,05,02,07,07,7.40
2016,05,02,07,08,7.40
2016,05,02,07,09,7.40
2016,05,02,07,10,7.50
2016,05,02,07,11,7.50
2016,05,02,07,12,7.50
2016,05,02,07,13,7.60
2016,05,02,07,14,7.60
2016,05,02,07,15,7.60
2016,05,02,07,16,7.70
2016,05,02,07,17,7.70
2016,05,02,07,18,7.70
2016,05,02,07,19,7.70
2016,05,02,07,20,7.80
2016,05,02,07,21,7.80
2016,05,02,07,22,7.80
2016,05,02,07,23,7.90
2016,05,02,07,24,7.90
2016,05,02,07,25,7.90
2016,05,02,07,26,8.00
2016,05,02,07,27,8.00
2016,05,02,07,28,8.10
2016,05,02,07,29,8.10
2016,05,02,07,30,8.20
2016,05,02,07,31,8.20
2016,05,02,07,32,8.30
2016,05,02,07,33,8.30
2016,05,02,07,34,8.40
2016,05,02,07,35,8.40
2016,05,02,07,36,8.50
2016,05,02,07,37,8.50
2016,05,02,07,38,8.60
2016,05,02,07,39,8.60
2016,05,02,07,40,8.70
2016,05,02,07,41,8.80
2016,05,02,07,42,8.80
2016,05,02,07,43,8.90
2016,05,02,07,44,9.00
2016,05,02,07,45,9.10
2016,05,02,07,46,9.20
2016,05,02,07,47,9.30
2016,05,02,07,48,9.40
2016,05,02,07,49,9.60
2016,05,02,07,50,9.70
2016,05,02,07,51,9.80
2016,05,02,07,52,10.00
2016,05,02,07,53,10.10
2016,05,02,07,54,10.30
2016,05,02,07,55,10.50
2016,05,02,07,56,10.70
2016,05,02,07,57,10.90
2016,05,02,07,58,11.00
2016,05,02,07,59,11.20
2016,05,02,08,00,11.40
2016,05,02,08,01,11.60
2016,05,02,08,02,11.70
2016,05,02,08,03,11.90
2016,05,02,08,04,12.10
2016,05,02,08,05,12.30
2016,05,02,08,06,12.50
2016,05,02,08,07,12.60
2016,05,02,08,08,12.80
2016,05,02,08,09,13.00
2016,05,02,08,10,13.20
2016,05,02,08,11,13.40
2016,05,02,08,12,13.60
2016,05,02,08,13,13.80
2016,05,02,08,14,14.00
2016,05,02,08,15,14.20
2016,05,02,08,16,14.30
2016,05,02,08,17,14.50
2016,05,02,08,18,14.70
2016,05,02,08,19,14.90
2016,05,02,08,20,15.00
2016,05,02,08,21,15.20
2016,05,02,08,22,15.40
2016,05,02,08,23,15.50
2016,05,02,08,24,15.70
2016,05,02,08,25,15.80
2016,05,02,08,26,16.00
2016,05,02,08,27,16.10
2016,05,02,08,28,16.20
2016,05,02,08,29,16.40
2016,05,02,08,30,16.50
2016,05,02,08,31,16.70
2016,05,02,08,32,16.80
2016,05,02,08,33,16.90
2016,05,02,08,34,17.10
2016,05,02,08,35,17.20
2016,05,02,08,36,17.30
2016,05,02,08,37,17.50
2016,05,02,08,38,17.60
2016,05,02,08,39,17.80
2016,05,02,08,40,17.90
2016,05,02,08,41,18.00
2016,05,02,08,42,18.00
2016,05,02,08,43,18.10
2016,05,02,08,44,18.20
2016,05,02,08,45,18.30
2016,05,02,08,46,18.30
2016,05,02,08,47,18.40
2016,05,02,08,48,18.50
2016,05,02,08,49,18.50
2016,05,02,08,50,18.60
2016,05,02,08,51,18.60
2016,05,02,08,52,18.70
2016,05,02,08,53,18.70
2016,05,02,08,54,18.70
2016,05,02,08,55,18.80
2016,05,02,08,56,18.80
2016,05,02,08,57,18.90
2016,05,02,08,58,19.00
2016,05,02,08,59,19.10
2016,05,02,09,00,19.20
2016,05,02,09,01,19.30
2016,05,02,09,02,19.40
2016,05,02,09,03,19.50
2016,05,02,09,04,19.60
2016,05,02,09,05,19.70
2016,05,02,09,06,19.70
2016,05,02,09,07,19.70
2016,05,02,09,08,19.80
2016,05,02,09,09,19.80
2016,05,02,09,10,19.90
2016,05,02,09,11,20.00
2016,05,02,09,12,20.00
2016,05,02,09,13,20.10
2016,05,02,09,14,20.20
2016,05,02,09,15,20.30
2016,05,02,09,16,20.30
2016,05,02,09,17,20.30
2016,05,02,09,18,20.30
2016,05,02,09,19,20.30
2016,05,02,09,20,20.30
2016,05,02,09,21,20.40
2016,05,02,09,22,20.40
2016,05,02,09,23,20.40
2016,05,02,09,24,20.40
2016,05,02,09,25,20.30
2016,05,02,09,26,20.30
2016,05,02,09,27,20.40
2016,05,02,09,28,20.40
2016,05,02,09,29,20.50
2016,05,02,09,30,20.60
2016,05,02,09,31,20.70
2016,05,02,09,32,20.80
2016,05,02,09,33,20.80
2016,05,02,09,34,20.90
2016,05,02,09,35,21.00
2016,05,02,09,36,21.00
2016,05,02,09,37,21.10
2016,05,02,09,38,21.10
2016,05,02,09,39,21.00
2016,05,02,09,40,21.00
2016,05,02,09,41,20.90
2016,05,02,09,42,20.80
2016,05,02,09,43,20.80
2016,05,02,09,44,20.80
2016,05,02,09,45,20.80
2016,05,02,09,46,20.80
2016,05,02,09,47,20.80
2016,05,02,09,48,20.70
2016,05,02,09,49,20.70
2016,05,02,09,50,20.60
2016,05,02,09,51,20.40
2016,05,02,09,52,20.30
2016,05,02,09,53,20.30
2016,05,02,09,54,20.20
2016,05,02,09,55,20.20
2016,05,02,09,56,20.20
2016,05,02,09,57,20.20
2016,05,02,09,58,20.20
2016,05,02,09,59,20.20
2016,05,02,10,00,20.10
2016,05,02,10,01,20.10
2016,05,02,10,02,20.10
2016,05,02,10,03,20.10
2016,05,02,10,04,20.10
2016,05,02,10,05,20.10
2016,05,02,10,06,20.20
2016,05,02,10,07,20.30
2016,05,02,10,08,20.30
2016,05,02,10,09,20.30
2016,05,02,10,10,20.30
2016,05,02,10,11,20.30
2016,05,02,10,12,20.40
2016,05,02,10,13,20.40
2016,05,02,10,14,20.50
2016,05,02,10,15,20.60
2016,05,02,10,16,20.70
2016,05,02,10,17,20.80
2016,05,02,10,18,20.90
2016,05,02,10,19,21.00
2016,05,02,10,20,21.00
2016,05,02,10,21,21.10
2016,05,02,10,22,21.10
2016,05,02,10,23,21.20
2016,05,02,10,24,21.20
2016,05,02,10,25,21.30
2016,05,02,10,26,21.30
2016,05,02,10,27,21.40
2016,05,02,10,28,21.50
2016,05,02,10,29,21.60
2016,05,02,10,30,21.70
2016,05,02,10,31,21.80
2016,05,02,10,32,21.80
2016,05,02,10,33,21.90
2016,05,02,10,34,21.90
2016,05,02,10,35,21.90
2016,05,02,10,36,21.80
2016,05,02,10,37,21.80
2016,05,02,10,38,21.80
2016,05,02,10,39,21.80
2016,05,02,10,40,21.80
2016,05,02,10,41,21.90
2016,05,02,10,42,21.90
2016,05,02,10,43,21.90
2016,05,02,10,44,21.90
2016,05,02,10,45,21.90
2016,05,02,10,46,21.80
2016,05,02,10,47,21.80
2016,05,02,10,48,21.80
2016,05,02,10,49,21.80
2016,05,02,10,50,21.80
2016,05,02,10,51,21.80
2016,05,02,10,52,21.80
2016,05,02,10,53,21.80
2016,05,02,10,54,21.80
2016,05,02,10,55,21.80
2016,05,02,10,56,21.70
2016,05,02,10,57,21.70
2016,05,02,10,58,21.60
2016,05,02,10,59,21.60
2016,05,02,11,00,21.50
2016,05,02,11,01,21.40
2016,05,02,11,02,21.40
2016,05,02,11,03,21.40
2016,05,02,11,04,21.40
2016,05,02,11,05,21.50
2016,05,02,11,06,21.60
2016,05,02,11,07,21.60
2016,05,02,11,08,21.70
2016,05,02,11,09,21.80
2016,05,02,11,10,21.80
2016,05,02,11,11,21.90
2016,05,02,11,12,22.00
2016,05,02,11,13,22.00
2016,05,02,11,14,22.10
2016,05,02,11,15,22.20
2016,05,02,11,16,22.20
2016,05,02,11,17,22.30
2016,05,02,11,18,22.30
2016,05,02,11,19,22.40
2016,05,02,11,20,22.40
2016,05,02,11,21,22.50
2016,05,02,11,22,22.50
2016,05,02,11,23,22.60
2016,05,02,11,24,22.60
2016,05,02,11,25,22.60
2016,05,02,11,26,22.70
2016,05,02,11,27,22.80
2016,05,02,11,28,22.90
2016,05,02,11,29,22.90
2016,05,02,11,30,22.90
2016,05,02,11,31,22.90
2016,05,02,11,32,22.90
2016,05,02,11,33,22.90
2016,05,02,11,34,22.90
2016,05,02,11,35,23.00
2016,05,02,11,36,23.00
2016,05,02,11,37,23.10
2016,05,02,11,38,23.20
2016,05,02,11,39,23.30
2016,05,02,11,40,23.40
2016,05,02,11,41,23.50
2016,05,02,11,42,23.50
2016,05,02,11,43,23.60
2016,05,02,11,44,23.60
2016,05,02,11,45,23.60
2016,05,02,11,46,23.60
2016,05,02,11,47,23.60
2016,05,02,11,48,23.70
2016,05,02,11,49,23.70
2016,05,02,11,50,23.70
2016,05,02,11,51,23.70
2016,05,02,11,52,23.70
2016,05,02,11,53,23.80
2016,05,02,11,54,23.80
2016,05,02,11,55,23.90
2016,05,02,11,56,23.90
2016,05,02,11,57,23.90
2016,05,02,11,58,24.00
2016,05,02,11,59,24.00
2016,05,02,12,00,24.10
2016,05,02,12,01,24.10
2016,05,02,12,02,24.10
2016,05,02,12,03,24.10
2016,05,02,12,04,24.10
2016,05,02,12,05,24.00
2016,05,02,12,06,23.90
2016,05,02,12,07,23.80
2016,05,02,12,08,23.80
2016,05,02,12,09,23.80
2016,05,02,12,10,23.80
2016,05,02,12,11,23.80
2016,05,02,12,12,23.80
2016,05,02,12,13,23.80
2016,05,02,12,14,23.80
2016,05,02,12,15,23.80
2016,05,02,12,16,23.90
2016,05,02,12,17,23.90
2016,05,02,12,18,24.00
2016,05,02,12,19,24.00
2016,05,02,12,20,24.10
2016,05,02,12,21,24.10
2016,05,02,12,22,24.20
2016,05,02,12,23,24.10
2016,05,02,12,24,24.20
2016,05,02,12,25,24.30
2016,05,02,12,26,24.30
2016,05,02,12,27,24.40
2016,05,02,12,28,24.40
2016,05,02,12,29,24.50
2016,05,02,12,30,24.50
2016,05,02,12,31,24.50
2016,05,02,12,32,24.60
2016,05,02,12,33,24.60
2016,05,02,12,34,24.60
2016,05,02,12,35,24.70
2016,05,02,12,36,24.60
2016,05,02,12,37,24.50
2016,05,02,12,38,24.50
2016,05,02,12,39,24.50
2016,05,02,12,40,24.60
2016,05,02,12,41,24.60
2016,05,02,12,42,24.70
2016,05,02,12,43,24.70
2016,05,02,12,44,24.70
2016,05,02,12,45,24.60
2016,05,02,12,46,24.60
2016,05,02,12,47,24.60
2016,05,02,12,48,24.60
2016,05,02,12,49,24.60
2016,05,02,12,50,24.70
2016,05,02,12,51,24.80
2016,05,02,12,52,24.80
2016,05,02,12,53,24.90
2016,05,02,12,54,25.00
2016,05,02,12,55,25.00
2016,05,02,12,56,25.00
2016,05,02,12,57,25.00
2016,05,02,12,58,24.80
2016,05,02,12,59,24.80
2016,05,02,13,00,24.80
2016,05,02,13,01,24.90
2016,05,02,13,02,24.90
2016,05,02,13,03,25.00
2016,05,02,13,04,25.00
2016,05,02,13,05,25.00
2016,05,02,13,06,25.10
2016,05,02,13,07,25.10
2016,05,02,13,08,25.20
2016,05,02,13,09,25.10
2016,05,02,13,10,25.10
2016,05,02,13,11,25.00
2016,05,02,13,12,24.90
2016,05,02,13,13,24.80
2016,05,02,13,14,24.70
2016,05,02,13,15,24.60
2016,05,02,13,16,24.50
2016,05,02,13,17,24.50
2016,05,02,13,18,24.60
2016,05,02,13,19,24.60
2016,05,02,13,20,24.60
2016,05,02,13,21,24.70
2016,05,02,13,22,24.70
2016,05,02,13,23,24.70
2016,05,02,13,24,24.70
2016,05,02,13,25,24.70
2016,05,02,13,26,24.70
2016,05,02,13,27,24.70
2016,05,02,13,28,24.80
2016,05,02,13,29,24.80
2016,05,02,13,30,24.90
2016,05,02,13,31,24.90
2016,05,02,13,32,24.90
2016,05,02,13,33,24.80
2016,05,02,13,34,24.80
2016,05,02,13,35,24.80
2016,05,02,13,36,24.90
2016,05,02,13,37,24.90
2016,05,02,13,38,25.00
2016,05,02,13,39,25.10
2016,05,02,13,40,25.10
2016,05,02,13,41,25.20
2016,05,02,13,42,25.30
2016,05,02,13,43,25.40
2016,05,02,13,44,25.50
2016,05,02,13,45,25.70
2016,05,02,13,46,25.80
2016,05,02,13,47,25.90
2016,05,02,13,48,25.90
2016,05,02,13,49,25.90
2016,05,02,13,50,25.80
2016,05,02,13,51,25.80
2016,05,02,13,52,25.70
2016,05,02,13,53,25.80
2016,05,02,13,54,25.80
2016,05,02,13,55,25.90
2016,05,02,13,56,25.90
2016,05,02,13,57,25.90
2016,05,02,13,58,26.00
2016,05,02,13,59,26.00
2016,05,02,14,00,25.90
2016,05,02,14,01,25.90
2016,05,02,14,02,25.70
2016,05,02,14,03,25.60
2016,05,02,14,04,25.60
2016,05,02,14,05,25.50
2016,05,02,14,06,25.50
2016,05,02,14,07,25.50
2016,05,02,14,08,25.40
2016,05,02,14,09,25.40
2016,05,02,14,10,25.40
2016,05,02,14,11,25.40
2016,05,02,14,12,25.40
2016,05,02,14,13,25.40
2016,05,02,14,14,25.50
2016,05,02,14,15,25.60
2016,05,02,14,16,25.60
2016,05,02,14,17,25.60
2016,05,02,14,18,25.60
2016,05,02,14,19,25.70
2016,05,02,14,20,25.70
2016,05,02,14,21,25.70
2016,05,02,14,22,25.70
2016,05,02,14,23,25.70
2016,05,02,14,24,25.80
2016,05,02,14,25,25.80
2016,05,02,14,26,25.90
2016,05,02,14,27,25.90
2016,05,02,14,28,26.00
2016,05,02,14,29,26.10
2016,05,02,14,30,26.20
2016,05,02,14,31,26.30
2016,05,02,14,32,26.20
2016,05,02,14,33,26.20
2016,05,02,14,34,26.30
2016,05,02,14,35,26.40
2016,05,02,14,36,26.50
2016,05,02,14,37,26.50
2016,05,02,14,38,26.60
2016,05,02,14,39,26.60
2016,05,02,14,40,26.70
2016,05,02,14,41,26.70
2016,05,02,14,42,26.70
2016,05,02,14,43,26.80
2016,05,02,14,44,26.80
2016,05,02,14,45,26.80
2016,05,02,14,46,26.80
2016,05,02,14,47,26.80
2016,05,02,14,48,26.70
2016,05,02,14,49,26.70
2016,05,02,14,50,26.60
2016,05,02,14,51,26.50
2016,05,02,14,52,26.40
2016,05,02,14,53,26.30
2016,05,02,14,54,26.20
2016,05,02,14,55,26.00
2016,05,02,14,56,25.90
2016,05,02,14,57,25.90
2016,05,02,14,58,25.80
2016,05,02,14,59,25.80
2016,05,02,15,00,25.90
2016,05,02,15,01,25.90
2016,05,02,15,02,26.00
2016,05,02,15,03,26.20
2016,05,02,15,04,26.30
2016,05,02,15,05,26.50
2016,05,02,15,06,26.60
2016,05,02,15,07,26.70
2016,05,02,15,08,26.80
2016,05,02,15,09,26.90
2016,05,02,15,10,27.00
2016,05,02,15,11,27.10
2016,05,02,15,12,27.20
2016,05,02,15,13,27.20
2016,05,02,15,14,27.30
2016,05,02,15,15,27.30
2016,05,02,15,16,27.30
2016,05,02,15,17,27.30
2016,05,02,15,18,27.30
2016,05,02,15,19,27.30
2016,05,02,15,20,27.30
2016,05,02,15,21,27.30
2016,05,02,15,22,27.30
2016,05,02,15,23,27.20
2016,05,02,15,24,27.20
2016,05,02,15,25,27.20
2016,05,02,15,26,27.10
2016,05,02,15,27,27.10
2016,05,02,15,28,27.00
2016,05,02,15,29,26.90
2016,05,02,15,30,26.80
2016,05,02,15,31,26.60
2016,05,02,15,32,26.50
2016,05,02,15,33,26.50
2016,05,02,15,34,26.40
2016,05,02,15,35,26.40
2016,05,02,15,36,26.40
2016,05,02,15,37,26.40
2016,05,02,15,38,26.40
2016,05,02,15,39,26.40
2016,05,02,15,40,26.40
2016,05,02,15,41,26.40
2016,05,02,15,42,26.40
2016,05,02,15,43,26.40
2016,05,02,15,44,26.40
2016,05,02,15,45,26.40
2016,05,02,15,46,26.40
2016,05,02,15,47,26.30
2016,05,02,15,48,26.30
2016,05,02,15,49,26.20
2016,05,02,15,50,26.10
2016,05,02,15,51,26.00
2016,05,02,15,52,25.90
2016,05,02,15,53,25.90
2016,05,02,15,54,25.90
2016,05,02,15,55,25.90
2016,05,02,15,56,25.90
2016,05,02,15,57,25.90
2016,05,02,15,58,25.90
2016,05,02,15,59,25.90
2016,05,02,16,00,25.90
2016,05,02,16,01,25.90
2016,05,02,16,02,25.90
2016,05,02,16,03,25.90
2016,05,02,16,04,25.90
2016,05,02,16,05,25.90
2016,05,02,16,06,26.00
2016,05,02,16,07,26.00
2016,05,02,16,08,26.00
2016,05,02,16,09,25.90
2016,05,02,16,10,25.90
2016,05,02,16,11,25.90
2016,05,02,16,12,25.80
2016,05,02,16,13,25.80
2016,05,02,16,14,25.90
2016,05,02,16,15,25.90
2016,05,02,16,16,25.90
2016,05,02,16,17,25.90
2016,05,02,16,18,25.90
2016,05,02,16,19,25.90
2016,05,02,16,20,26.00
2016,05,02,16,21,26.00
2016,05,02,16,22,26.10
2016,05,02,16,23,26.10
2016,05,02,16,24,26.10
2016,05,02,16,25,26.10
2016,05,02,16,26,26.10
2016,05,02,16,27,26.10
2016,05,02,16,28,26.10
2016,05,02,16,29,26.00
2016,05,02,16,30,26.00
2016,05,02,16,31,25.90
2016,05,02,16,32,25.90
2016,05,02,16,33,25.90
2016,05,02,16,34,25.90
2016,05,02,16,35,25.90
2016,05,02,16,36,25.80
2016,05,02,16,37,25.80
2016,05,02,16,38,25.80
2016,05,02,16,39,25.80
2016,05,02,16,40,25.80
2016,05,02,16,41,25.80
2016,05,02,16,42,25.80
2016,05,02,16,43,25.80
2016,05,02,16,44,25.80
2016,05,02,16,45,25.80
2016,05,02,16,46,25.80
2016,05,02,16,47,25.90
2016,05,02,16,48,25.90
2016,05,02,16,49,25.90
2016,05,02,16,50,25.90
2016,05,02,16,51,25.90
2016,05,02,16,52,25.90
2016,05,02,16,53,25.90
2016,05,02,16,54,25.90
2016,05,02,16,55,25.90
2016,05,02,16,56,25.90
2016,05,02,16,57,25.90
2016,05,02,16,58,25.90
2016,05,02,16,59,25.90
2016,05,02,17,00,25.90
2016,05,02,17,01,25.90
2016,05,02,17,02,25.90
2016,05,02,17,03,25.90
2016,05,02,17,04,25.90
2016,05,02,17,05,25.80
2016,05,02,17,06,25.80
2016,05,02,17,07,25.80
2016,05,02,17,08,25.70
2016,05,02,17,09,25.60
2016,05,02,17,10,25.60
2016,05,02,17,11,25.60
2016,05,02,17,12,25.50
2016,05,02,17,13,25.50
2016,05,02,17,14,25.40
2016,05,02,17,15,25.40
2016,05,02,17,16,25.30
2016,05,02,17,17,25.30
2016,05,02,17,18,25.30
2016,05,02,17,19,25.20
2016,05,02,17,20,25.10
2016,05,02,17,21,25.10
2016,05,02,17,22,25.00
2016,05,02,17,23,25.00
2016,05,02,17,24,24.90
2016,05,02,17,25,24.80
2016,05,02,17,26,24.70
2016,05,02,17,27,24.60
2016,05,02,17,28,24.50
2016,05,02,17,29,24.40
2016,05,02,17,30,24.30
2016,05,02,17,31,24.20
2016,05,02,17,32,24.10
2016,05,02,17,33,24.10
2016,05,02,17,34,24.00
2016,05,02,17,35,24.00
2016,05,02,17,36,23.90
2016,05,02,17,37,23.90
2016,05,02,17,38,23.90
2016,05,02,17,39,23.80